Location: Hylvaty SDH
(49.9612°N, 16.4057°E)
Time: 20:45:41
(UTC+02:00)

Transit 4A - Pass Details

Date: 14 August 2020
Orbit: 862 x 982 km, 66.8° (Epoch: 28 September)

Event Time Altitude Azimuth Distance (km) Brightness Sun altitude
Rises 13:26:53 0° 298° (WNW) 3,584 10.9 53.7°
Reaches altitude 10° 13:30:26 10° 319° (NW) 2,665 10.2 53.6°
Maximum altitude 13:34:20 17° 358° (N) 2,232 9.7 53.4°
Drops below altitude 10° 13:38:17 10° 37° (NE) 2,712 10.1 53.3°
Sets 13:41:57 0° 57° (ENE) 3,675 10.7 53.1°
